Location: *
(40.9284°S, 98.5827°E)
Time: 10:53:10
(UTC+00:00)

Daily predictions for brighter satellites

Satellite Brightness Start Highest point End
(mag) Time Altitude Azimuth Time Altitude Azimuth Time Altitude Azimuth
SL-24 R/B 4.2 12:03:18 10° N 12:06:59 61° W 12:10:43 10° SSW
MOS 1 Rocket 3.5 12:04:20 10° NNE 12:09:47 76° ESE 12:15:10 10° S
BREEZE-M DEB (TANK) 3.1 12:07:47 10° SW 12:10:06 44° SSE 12:10:06 44° SSE
Lacrosse 4 Rocket 3.7 12:11:00 10° W 12:14:06 20° SW 12:17:16 10° S
FALCON 9 DEB 3.9 12:10:49 10° WNW 12:14:12 44° SSW 12:14:22 43° SSW
Cosmos 923 Rocket 4.0 12:09:28 10° SSW 12:14:46 84° WNW 12:19:59 10° NNE
GEOS 3 Rocket 3.5 12:19:05 37° NE 12:21:12 77° SE 12:26:23 10° SSW
Envisat 4.0 12:16:31 10° S 12:21:28 47° WSW 12:26:20 10° NW
NOAA 12 4.4 12:16:10 10° S 12:21:28 67° WSW 12:26:44 10° NNW
Meteor 2-15 4.3 12:15:30 10° N 12:21:34 70° E 12:27:03 13° SSE
USA 215 3.6 12:15:09 10° NE 12:21:38 65° NW 12:28:11 10° SW
Cosmos 1758 Rocket 3.5 12:17:46 10° S 12:22:19 89° W 12:26:50 10° N
Cosmos 1375 Rocket 4.4 12:18:08 10° NNW 12:24:20 61° ENE 12:25:39 50° ESE
Cosmos 2297 Rocket 3.3 12:23:42 10° NW 12:29:03 41° WSW 12:33:32 15° S
NOAA 11 4.1 12:27:28 47° SSE 12:29:03 72° ENE 12:34:30 10° N
Helios 1A Rocket 3.1 12:28:54 64° SSW 12:29:25 75° WSW 12:33:35 10° NNW
Cosmos 1937 Rocket 3.3 12:26:18 10° N 12:31:30 72° ENE 12:31:32 72° ENE
Cosmos 2228 3.1 12:29:44 10° N 12:33:55 77° NW 12:33:55 77° NW
Meteor 1-11 4.0 12:30:45 10° S 12:36:26 78° E 12:42:04 10° NNE
Cosmos 2237 Rocket 3.7 12:32:35 10° SW 12:37:43 35° WNW 12:42:50 10° NNW
Cosmos 44 Rocket 3.5 12:36:33 10° SSW 12:40:35 59° SSW 12:40:35 59° SSW
Okean O Rocket 4.2 12:42:52 10° SSW 12:46:01 19° WSW 12:49:08 10° WNW
SJ 16-02 3.1 12:46:14 10° NW 12:50:08 30° WSW 12:51:37 24° SSW
Cosmos 2315 Rocket 3.9 12:48:02 10° N 12:54:25 89° E 12:55:36 63° S
NOSS 3-1 (C) 4.3 12:56:19 10° NNW 13:04:07 57° NE 13:04:07 57° NE
CZ-2C R/B 3.5 13:01:51 10° N 13:06:51 46° W 13:11:59 10° SSW
Cosmos 2227 Rocket 4.2 13:09:54 10° WNW 13:14:18 23° SW 13:17:02 16° SSW
SL-16 R/B 3.5 13:24:10 10° SW 13:29:23 37° WNW 13:29:32 37° WNW
Lacrosse 5 4.3 13:41:04 10° WSW 13:43:51 19° WNW 13:43:51 19° WNW
SJ 16-02 4.4 21:22:07 11° ENE 21:22:07 11° ENE 21:22:20 10° ENE
Cosmos 2263 Rocket 4.2 21:54:32 15° S 21:57:55 24° SE 22:02:27 10° ENE
Okean O Rocket 3.0 22:01:48 10° NE 22:05:54 36° ESE 22:07:08 31° SE
Cosmos 2227 Rocket 4.2 22:12:15 16° N 22:12:15 16° N 22:13:20 10° N
Cosmos 990 Rocket 4.2 22:10:48 69° ESE 22:10:57 69° ESE 22:16:12 10° NNE
Cosmos 2082 4.0 22:13:53 56° N 22:13:53 56° N 22:18:24 10° NNE
Cosmos 1763 Rocket 3.6 22:16:18 71° SSE 22:16:18 71° SSE 22:21:02 10° SSE
Atlas Centaur 2 3.8 22:17:28 33° NW 22:19:59 40° N 22:27:18 10° ENE
Cosmos 1980 Rocket 2.0 22:20:16 77° NW 22:20:42 86° WSW 22:26:24 10° SSE
Cosmos 1898 Rocket 3.4 22:27:08 64° SSW 22:28:01 89° WNW 22:33:22 10° NNE
NOSS 3-1 (C) 3.1 22:28:46 67° W 22:29:06 68° WNW 22:34:26 10° NNE
Cosmos 2195 Rocket 4.4 22:23:29 10° N 22:29:50 82° W 22:36:18 10° S
PAYLOAD B 4.1 22:26:55 10° N 22:32:27 75° WNW 22:34:14 44° SSW
USA 267 3.2 22:26:53 10° SE 22:33:31 85° SW 22:36:46 33° NW
CZ-4C R/B 4.4 22:35:46 15° SSW 22:35:46 15° SSW 22:38:30 10° S
NOSS 2-3 (D) 4.4 22:32:31 35° SSW 22:35:28 77° SE 22:40:45 10° NE
SMAP 3.7 22:32:04 10° NNE 22:36:40 56° ESE 22:40:55 12° S
Cosmos 540 Rocket 3.7 22:32:53 10° N 22:38:03 69° ENE 22:43:15 10° SSE
YAOGAN 6 3.8 22:35:08 10° NE 22:38:32 41° ESE 22:40:12 24° SSE
Cosmos 1953 2.7 22:37:22 37° SSE 22:38:46 63° E 22:42:45 10° NNE
Cosmos 1570 Rocket 4.1 22:34:21 10° NNW 22:39:42 81° ENE 22:45:09 10° SSE
Cosmos 2278 3.8 22:44:08 49° WSW 22:44:15 49° WSW 22:49:49 10° SSE
Cosmos 841 Rocket 3.5 22:39:37 10° NNW 22:44:54 84° ENE 22:50:16 10° SSE
SL-16 R/B 3.4 22:40:34 10° N 22:45:54 44° ENE 22:51:19 10° SE
Cosmos 1697 Rocket 3.9 22:50:00 25° SSW 22:50:00 25° SSW 22:53:08 10° S
USA 229 DEB 3.6 22:45:47 39° WSW 22:48:13 61° WNW 22:54:34 10° NNE
USA 229 3.6 22:45:52 38° SW 22:48:21 62° WNW 22:54:41 10° NNE
Cosmos 2026 Rocket 3.9 22:42:50 10° NNW 22:48:57 68° W 22:55:14 10° S
Hubble Space Telescope 3.5 22:52:29 10° N 22:53:38 11° NNE 22:54:49 10° NNE
CZ-4B R/B 3.2 22:49:30 10° N 22:55:02 67° WNW 23:00:22 12° SSW
SJ 16-02 2.9 22:59:10 21° NW 22:59:10 21° NW 23:01:03 10° NNW
Aureole 3 Rocket 2.9 22:56:51 28° SSW 22:58:52 83° W 23:03:54 10° N
Cosmos 1937 Rocket 3.4 22:56:30 30° SSW 22:59:00 66° WNW 23:04:08 10° N
NOSS 3-1 (A) 3.2 22:57:25 31° SW 23:00:19 67° WNW 23:05:38 10° NNE
COSMO-SKYMED 1 4.3 22:58:00 10° SSE 23:02:04 35° E 23:06:04 10° NNE
Cosmos 1726 2.1 23:02:03 55° WSW 23:02:27 59° W 23:06:09 10° N
Cosmos 1092 Rocket 4.3 22:56:42 10° NW 23:02:28 39° WSW 23:08:17 10° S
AQUARIUS 4.1 22:57:58 10° NNE 23:02:30 88° W 23:07:06 10° SSW
Cosmos 1340 Rocket 4.1 23:05:19 25° NW 23:05:19 25° NW 23:07:32 10° NNW
ATLAS CENTAUR R/B 4.3 23:01:39 10° S 23:03:58 13° SE 23:06:18 10° ESE
NOSS 2-3 (C) 4.2 23:00:56 27° SW 23:04:28 64° WNW 23:09:33 10° NNE
ASTEX 1 4.0 22:59:55 10° NNE 23:04:44 59° E 23:09:38 10° S
Timation 1 Rocket 4.3 23:01:29 23° SW 23:05:24 66° WNW 23:11:21 10° NNE
H-2A R/B 3.7 23:03:18 10° NNW 23:06:02 31° NW 23:06:02 31° NW
USA 234 3.8 23:00:42 10° ENE 23:07:05 55° SE 23:12:16 16° SW
Cosmos 1674 2.6 23:03:51 10° N 23:07:36 84° E 23:11:27 10° S
Cosmos 1818 4.4 23:03:21 10° NNW 23:08:35 52° ENE 23:13:51 10° SE
OAO 2 Rocket 4.1 23:07:45 24° WNW 23:10:22 43° N 23:15:09 10° ENE
Cosmos 1536 Rocket 3.9 23:06:18 10° NNW 23:10:24 39° WSW 23:14:33 10° S
Orbus 7S? 3.0 23:09:35 35° NW 23:10:48 86° SW 23:15:50 10° SE
DELTA 2 R/B (1) 4.3 23:08:05 14° NW 23:12:41 49° NNE 23:18:07 10° E
BREEZE-M DEB (TANK) 3.4 23:12:37 29° SW 23:14:38 73° SSE 23:26:06 10° ENE
Cosmos 1437 2.4 23:13:04 10° NNW 23:16:05 80° W 23:19:10 10° S
Helios 1A Rocket 3.1 23:12:59 10° NNE 23:17:04 75° ESE 23:21:14 10° S
Cosmos 1417 Rocket 4.4 23:11:41 10° S 23:18:00 81° W 23:24:19 10° N
IRS-1C Rocket 4.2 23:16:27 10° NNE 23:21:44 80° ESE 23:27:05 10° SSW
Cosmos 2227 4.1 23:18:30 13° SSW 23:23:38 70° WNW 23:29:16 10° NNE
Cosmos 2322 Rocket 2.4 23:20:01 10° NNW 23:25:44 78° ENE 23:31:30 10° SSE
Meteor 1-16 Rocket 4.3 23:21:04 10° SSW 23:26:47 57° W 23:32:14 10° N
Cosmos 1655 Rocket 3.9 23:20:37 10° N 23:26:53 81° W 23:33:13 10° S
Meteor 2-5 Rocket 3.9 23:22:36 10° N 23:28:10 76° E 23:33:47 10° SSE
Cosmos 1606 Rocket 3.7 23:24:28 10° S 23:28:53 78° E 23:33:14 10° N
Cosmos 1461 3.2 23:28:40 25° WSW 23:30:18 39° WNW 23:33:55 10° N
Aureole 3 3.2 23:28:03 10° S 23:32:36 85° W 23:36:11 10° N
Cosmos 2266 Rocket 4.1 23:26:22 10° N 23:32:42 84° E 23:38:59 10° S
ADEOS Rocket 2.7 23:27:49 10° S 23:33:22 74° WSW 23:39:03 10° NNW
Envisat 3.6 23:31:02 10° NNW 23:35:43 36° W 23:40:29 10° SSW
CREW DRAGON DEMO-1 DEB 3.3 23:33:41 10° NW 23:36:46 62° NE 23:39:53 10° ESE
Cosmos 2292 Rocket 4.4 23:30:31 10° N 23:37:33 83° W 23:42:52 10° S
NOAA 12 4.4 23:36:18 10° N 23:41:18 44° W 23:46:22 10° SSW
Cosmos 2263 Rocket 2.4 23:36:36 10° SSW 23:42:12 55° WNW 23:47:45 10° N
Okean O Rocket 2.9 23:38:57 10° NW 23:42:20 21° W 23:44:35 15° WSW
Cosmos 2298 Rocket 4.0 23:37:25 10° SSW 23:42:47 78° WNW 23:48:05 10° NNE
BREEZE-M DEB (TANK) 4.3 23:39:30 15° WSW 23:44:27 32° S 23:47:19 10° ESE
SKYMED 2 3.5 23:45:46 10° S 23:50:11 68° WSW 23:54:31 10° NNW
Cosmos 2315 Rocket 4.3 23:45:33 10° S 23:51:53 75° E 23:58:06 10° NNE
Cosmos 1689 Rocket 3.6 23:50:17 10° SSW 23:52:25 18° WSW 23:54:32 10° WNW
NOAA 11 4.2 23:48:15 10° N 23:53:46 73° WNW 23:59:21 10° SSW
H-2A R/B 3.9 23:51:16 10° NE 23:55:28 28° ESE 23:59:45 10° S
